BVX150Y LCPH-LMML

Flight info

Callsign BVX150Y
Flight time 2h 20m
Altitude 36000
Route GENOS M42 ALKIS DCT ROTAS DCT NIMAN DCT AGARI/N0473F300 M978 GZO
Aircraft A320/M-SDE3FGHIRWY/LB1

Departure

Time 2026-05-05 18:58
Airport Paphos International Airport (LCPH)

Arrival

Time 2026-05-05 21:18
Airport Malta International Airport (LMML)
Time Latitude Longitude Altitude Speed Heading
2026-05-05 18:37 34.71326 32.48746 44 ft 0 kts 155°
2026-05-05 18:50 34.71340 32.48738 44 ft 4 kts 151°
2026-05-05 18:50 34.71362 32.48721 43 ft 4 kts 141°
2026-05-05 18:50 34.71382 32.48699 41 ft 4 kts 128°
2026-05-05 18:51 34.71396 32.48671 40 ft 4 kts 106°
2026-05-05 18:51 34.71397 32.48645 39 ft 1 kts 65°
2026-05-05 18:51 34.71397 32.48644 39 ft 0 kts 65°
2026-05-05 18:54 34.71398 32.48646 44 ft 2 kts 65°
2026-05-05 18:54 34.71418 32.48700 42 ft 11 kts 65°
2026-05-05 18:54 34.71462 32.48819 44 ft 19 kts 66°
2026-05-05 18:55 34.71510 32.48943 44 ft 15 kts 58°
2026-05-05 18:55 34.71602 32.49002 44 ft 15 kts 21°
2026-05-05 18:55 34.71625 32.49111 44 ft 16 kts 108°
2026-05-05 18:55 34.71584 32.49238 41 ft 17 kts 111°
2026-05-05 18:56 34.71540 32.49387 40 ft 20 kts 110°
2026-05-05 18:56 34.71488 32.49555 40 ft 22 kts 110°
2026-05-05 18:56 34.71434 32.49731 39 ft 21 kts 112°
2026-05-05 18:56 34.71383 32.49826 40 ft 13 kts 50°
2026-05-05 18:57 34.71416 32.49790 39 ft 6 kts 284°
2026-05-05 18:57 34.71423 32.49769 38 ft 0 kts 292°
2026-05-05 18:57 34.71423 32.49768 37 ft 4 kts 292°
2026-05-05 18:57 34.71537 32.49400 40 ft 89 kts 290°
2026-05-05 18:58 34.71839 32.48404 47 ft 158 kts 289°
2026-05-05 18:58 34.72239 32.47100 625 ft 168 kts 293°
2026-05-05 18:58 34.72560 32.45720 1442 ft 172 kts 271°
2026-05-05 18:58 34.72362 32.44248 2159 ft 187 kts 256°
2026-05-05 18:59 34.71950 32.42668 2488 ft 205 kts 253°
2026-05-05 18:59 34.71458 32.40921 2748 ft 231 kts 253°
2026-05-05 18:59 34.70957 32.39008 3222 ft 249 kts 255°
2026-05-05 18:59 34.70464 32.36904 3828 ft 262 kts 256°
2026-05-05 19:00 34.69976 32.34784 4695 ft 265 kts 256°
2026-05-05 19:00 34.69476 32.32577 5422 ft 273 kts 257°
2026-05-05 19:00 34.68974 32.30318 6228 ft 278 kts 257°
2026-05-05 19:00 34.68481 32.28062 7010 ft 280 kts 257°
2026-05-05 19:01 34.67978 32.25761 7848 ft 281 kts 257°
2026-05-05 19:01 34.67475 32.23452 8677 ft 283 kts 257°
2026-05-05 19:01 34.66973 32.21146 9495 ft 285 kts 257°
2026-05-05 19:01 34.66464 32.18797 10280 ft 288 kts 258°
2026-05-05 19:02 34.66155 32.16342 10540 ft 308 kts 268°
2026-05-05 19:02 34.66222 32.13652 10705 ft 330 kts 276°
2026-05-05 19:02 34.66453 32.10780 10834 ft 352 kts 276°
2026-05-05 19:02 34.66681 32.07747 11183 ft 364 kts 276°
2026-05-05 19:03 34.66900 32.04656 11793 ft 369 kts 275°
2026-05-05 19:03 34.67115 32.01564 12437 ft 372 kts 275°
2026-05-05 19:03 34.67329 31.98413 13103 ft 374 kts 275°
2026-05-05 19:03 34.67542 31.95250 13760 ft 377 kts 275°
2026-05-05 19:04 34.67757 31.92083 14329 ft 379 kts 275°
2026-05-05 19:04 34.68237 31.88925 14881 ft 381 kts 286°
2026-05-05 19:04 34.69086 31.85887 15432 ft 383 kts 289°
2026-05-05 19:04 34.69960 31.82844 15959 ft 385 kts 289°
2026-05-05 19:05 34.70835 31.79758 16527 ft 386 kts 288°
2026-05-05 19:05 34.71710 31.76649 17067 ft 388 kts 288°
2026-05-05 19:05 34.72584 31.73544 17602 ft 390 kts 288°
2026-05-05 19:05 34.73469 31.70404 18119 ft 392 kts 289°
2026-05-05 19:06 34.74345 31.67287 18591 ft 394 kts 288°
2026-05-05 19:06 34.75235 31.64113 19027 ft 396 kts 288°
2026-05-05 19:06 34.76131 31.60922 19475 ft 398 kts 288°
2026-05-05 19:06 34.77020 31.57756 19915 ft 399 kts 288°
2026-05-05 19:07 34.77921 31.54540 20356 ft 401 kts 288°
2026-05-05 19:07 34.78827 31.51301 20775 ft 403 kts 288°
2026-05-05 19:07 34.79721 31.48099 21171 ft 405 kts 288°
2026-05-05 19:07 34.80631 31.44841 21582 ft 407 kts 288°
2026-05-05 19:08 34.81537 31.41596 21978 ft 408 kts 288°
2026-05-05 19:08 34.82455 31.38303 22369 ft 410 kts 287°
2026-05-05 19:08 34.83374 31.35001 22763 ft 411 kts 287°
2026-05-05 19:08 34.84294 31.31689 23140 ft 413 kts 287°
2026-05-05 19:09 34.85205 31.28399 23512 ft 415 kts 287°
2026-05-05 19:09 34.86133 31.25053 23850 ft 417 kts 287°
2026-05-05 19:09 34.87054 31.21729 24157 ft 418 kts 287°
2026-05-05 19:09 34.87984 31.18363 24468 ft 419 kts 287°
2026-05-05 19:10 34.88918 31.14983 24770 ft 420 kts 287°
2026-05-05 19:10 34.89852 31.11600 25053 ft 422 kts 288°
2026-05-05 19:10 34.90779 31.08240 25339 ft 423 kts 288°
2026-05-05 19:10 34.91720 31.04822 25618 ft 424 kts 288°
2026-05-05 19:11 34.92663 31.01392 25893 ft 425 kts 288°
2026-05-05 19:11 34.93593 30.98006 26163 ft 427 kts 288°
2026-05-05 19:11 34.94539 30.94560 26427 ft 428 kts 288°
2026-05-05 19:11 34.95486 30.91109 26710 ft 429 kts 288°
2026-05-05 19:12 34.96422 30.87695 27065 ft 428 kts 288°
2026-05-05 19:12 34.97361 30.84252 27468 ft 426 kts 288°
2026-05-05 19:12 34.98294 30.80828 27867 ft 424 kts 288°
2026-05-05 19:12 34.99218 30.77444 28259 ft 422 kts 289°
2026-05-05 19:13 35.00147 30.74039 28645 ft 421 kts 289°
2026-05-05 19:13 35.01071 30.70640 29044 ft 420 kts 289°
2026-05-05 19:13 35.01976 30.67291 29435 ft 418 kts 289°
2026-05-05 19:13 35.02891 30.63908 29833 ft 417 kts 289°
2026-05-05 19:14 35.03790 30.60584 30208 ft 415 kts 289°
2026-05-05 19:14 35.04694 30.57233 30528 ft 414 kts 289°
2026-05-05 19:14 35.05597 30.53885 30835 ft 413 kts 289°
2026-05-05 19:14 35.06484 30.50600 31135 ft 412 kts 289°
2026-05-05 19:15 35.07382 30.47275 31432 ft 411 kts 289°
2026-05-05 19:15 35.08283 30.43941 31739 ft 411 kts 289°
2026-05-05 19:15 35.09169 30.40653 32043 ft 410 kts 289°
2026-05-05 19:15 35.10058 30.37343 32337 ft 409 kts 289°
2026-05-05 19:16 35.10947 30.34026 32632 ft 409 kts 289°
2026-05-05 19:16 35.11824 30.30749 32919 ft 408 kts 289°
2026-05-05 19:16 35.12700 30.27471 33209 ft 408 kts 289°
2026-05-05 19:16 35.13580 30.24177 33501 ft 407 kts 289°
2026-05-05 19:17 35.14461 30.20876 33795 ft 406 kts 289°
2026-05-05 19:17 35.15327 30.17632 34073 ft 406 kts 289°
2026-05-05 19:17 35.16205 30.14329 34322 ft 405 kts 289°
2026-05-05 19:17 35.17074 30.11053 34547 ft 405 kts 289°
2026-05-05 19:18 35.17937 30.07804 34773 ft 405 kts 289°
2026-05-05 19:18 35.18808 30.04521 34992 ft 405 kts 289°
2026-05-05 19:18 35.19676 30.01226 35217 ft 405 kts 288°
2026-05-05 19:18 35.20259 29.97884 35411 ft 406 kts 280°
2026-05-05 19:19 35.20655 29.94455 35607 ft 406 kts 280°
2026-05-05 19:19 35.21055 29.91019 35810 ft 406 kts 280°
2026-05-05 19:19 35.21449 29.87641 35982 ft 407 kts 280°
2026-05-05 19:19 35.21853 29.84194 36037 ft 409 kts 280°
2026-05-05 19:20 35.22650 29.77308 36043 ft 410 kts 280°
2026-05-05 19:20 35.23446 29.70377 36037 ft 409 kts 281°
2026-05-05 19:21 35.24242 29.63512 36041 ft 409 kts 281°
2026-05-05 19:21 35.25032 29.56612 36040 ft 409 kts 281°
2026-05-05 19:22 35.25814 29.49768 36035 ft 409 kts 281°
2026-05-05 19:22 35.26600 29.42862 36043 ft 409 kts 281°
2026-05-05 19:23 35.27373 29.35996 36044 ft 409 kts 281°
2026-05-05 19:23 35.28145 29.29074 36047 ft 409 kts 281°
2026-05-05 19:24 35.28915 29.22180 36053 ft 409 kts 281°
2026-05-05 19:24 35.29679 29.15308 36053 ft 409 kts 281°
2026-05-05 19:25 35.30433 29.08434 36053 ft 409 kts 281°
2026-05-05 19:25 35.31186 29.01512 36054 ft 408 kts 281°
2026-05-05 19:26 35.31940 28.94630 36044 ft 408 kts 281°
2026-05-05 19:26 35.32691 28.87763 36052 ft 408 kts 281°
2026-05-05 19:27 35.33433 28.80894 36055 ft 408 kts 281°
2026-05-05 19:27 35.34172 28.73992 36055 ft 407 kts 281°
2026-05-05 19:28 35.34904 28.67133 36058 ft 407 kts 281°
2026-05-05 19:28 35.35632 28.60275 36050 ft 407 kts 281°
2026-05-05 19:29 35.36359 28.53408 36051 ft 407 kts 281°
2026-05-05 19:29 35.37081 28.46501 36053 ft 407 kts 281°
2026-05-05 19:30 35.37799 28.39654 36045 ft 407 kts 281°
2026-05-05 19:30 35.38519 28.32803 36040 ft 407 kts 281°
2026-05-05 19:31 35.39233 28.25907 36039 ft 407 kts 281°
2026-05-05 19:31 35.39933 28.19017 36041 ft 406 kts 280°
2026-05-05 19:32 35.40629 28.12172 36062 ft 406 kts 281°
2026-05-05 19:32 35.41333 28.05284 36054 ft 406 kts 281°
2026-05-05 19:33 35.42031 27.98425 36059 ft 406 kts 281°
2026-05-05 19:33 35.42714 27.91579 36061 ft 406 kts 281°
2026-05-05 19:34 35.43394 27.84715 36061 ft 406 kts 281°
2026-05-05 19:35 35.44415 27.74394 36067 ft 406 kts 280°
2026-05-05 19:35 35.45091 27.67528 36068 ft 406 kts 280°
2026-05-05 19:36 35.45763 27.60650 36068 ft 406 kts 280°
2026-05-05 19:36 35.46431 27.53779 36073 ft 406 kts 280°
2026-05-05 19:37 35.47099 27.46872 36068 ft 406 kts 280°
2026-05-05 19:37 35.47757 27.40001 36074 ft 406 kts 280°
2026-05-05 19:38 35.48412 27.33132 36083 ft 406 kts 280°
2026-05-05 19:38 35.48957 27.27391 36084 ft 406 kts 280°
2026-05-05 19:39 35.49601 27.20523 36083 ft 406 kts 280°
2026-05-05 19:39 35.50244 27.13652 36084 ft 405 kts 280°
2026-05-05 19:40 35.50892 27.06763 36086 ft 405 kts 280°
2026-05-05 19:40 35.51526 26.99922 36086 ft 405 kts 280°
2026-05-05 19:41 35.52150 26.93075 36087 ft 405 kts 280°
2026-05-05 19:41 35.52776 26.86222 36071 ft 404 kts 280°
2026-05-05 19:42 35.53405 26.79368 36071 ft 405 kts 280°
2026-05-05 19:42 35.54029 26.72464 36068 ft 405 kts 280°
2026-05-05 19:43 35.54644 26.65593 36074 ft 406 kts 280°
2026-05-05 19:43 35.55254 26.58718 36082 ft 406 kts 280°
2026-05-05 19:44 35.55869 26.51814 36072 ft 406 kts 280°
2026-05-05 19:44 35.56474 26.44924 36080 ft 406 kts 280°
2026-05-05 19:45 35.57075 26.38043 36081 ft 406 kts 280°
2026-05-05 19:45 35.57677 26.31153 36084 ft 406 kts 280°
2026-05-05 19:46 35.58268 26.24271 36078 ft 406 kts 280°
2026-05-05 19:46 35.58854 26.17375 36082 ft 407 kts 280°
2026-05-05 19:47 35.59443 26.10436 36082 ft 407 kts 280°
2026-05-05 19:47 35.60027 26.03525 36086 ft 408 kts 280°
2026-05-05 19:48 35.60601 25.96582 36097 ft 408 kts 280°
2026-05-05 19:48 35.61180 25.89654 36076 ft 408 kts 281°
2026-05-05 19:49 35.61767 25.82691 36076 ft 409 kts 281°
2026-05-05 19:49 35.62335 25.75757 36084 ft 409 kts 281°
2026-05-05 19:50 35.62898 25.68813 36086 ft 409 kts 281°
2026-05-05 19:50 35.63462 25.61820 36073 ft 409 kts 281°
2026-05-05 19:51 35.64022 25.54859 36080 ft 409 kts 281°
2026-05-05 19:51 35.64580 25.47901 36088 ft 410 kts 281°
2026-05-05 19:52 35.65130 25.40964 36088 ft 410 kts 280°
2026-05-05 19:52 35.65677 25.33965 36086 ft 410 kts 280°
2026-05-05 19:53 35.66222 25.27020 36093 ft 409 kts 280°
2026-05-05 19:53 35.66754 25.20088 36097 ft 408 kts 280°
2026-05-05 19:54 35.67288 25.13116 36096 ft 408 kts 280°
2026-05-05 19:54 35.67814 25.06197 36095 ft 408 kts 280°
2026-05-05 19:55 35.68342 24.99215 36086 ft 408 kts 279°
2026-05-05 19:55 35.68860 24.92297 36091 ft 407 kts 279°
2026-05-05 19:56 35.69376 24.85371 36098 ft 407 kts 279°
2026-05-05 19:56 35.69888 24.78452 36099 ft 407 kts 279°
2026-05-05 19:57 35.70399 24.71470 36101 ft 407 kts 279°
2026-05-05 19:57 35.70905 24.64537 36101 ft 407 kts 279°
2026-05-05 19:58 35.71409 24.57610 36106 ft 408 kts 279°
2026-05-05 19:58 35.71909 24.50623 36104 ft 408 kts 279°
2026-05-05 19:59 35.72397 24.43684 36103 ft 408 kts 279°
2026-05-05 19:59 35.72886 24.36757 36099 ft 408 kts 279°
2026-05-05 20:00 35.73372 24.29761 36104 ft 408 kts 279°
2026-05-05 20:00 35.73854 24.22815 36110 ft 408 kts 279°
2026-05-05 20:01 35.74333 24.15890 36111 ft 408 kts 279°
2026-05-05 20:01 35.74808 24.08893 36112 ft 408 kts 279°
2026-05-05 20:02 35.75277 24.01934 36107 ft 408 kts 279°
2026-05-05 20:02 35.75738 23.94959 36108 ft 409 kts 279°
2026-05-05 20:03 35.76200 23.87997 36108 ft 409 kts 279°
2026-05-05 20:03 35.76663 23.81041 36114 ft 410 kts 279°
2026-05-05 20:04 35.77121 23.74021 36109 ft 410 kts 279°
2026-05-05 20:04 35.77570 23.67043 36110 ft 410 kts 279°
2026-05-05 20:05 35.78012 23.60069 36107 ft 410 kts 278°
2026-05-05 20:05 35.78461 23.53043 36105 ft 410 kts 278°
2026-05-05 20:06 35.78901 23.46047 36106 ft 411 kts 278°
2026-05-05 20:06 35.79333 23.39042 36102 ft 411 kts 278°
2026-05-05 20:07 35.79764 23.32025 36111 ft 411 kts 278°
2026-05-05 20:07 35.80194 23.25027 36116 ft 411 kts 278°
2026-05-05 20:08 35.80621 23.18027 36118 ft 410 kts 278°
2026-05-05 20:08 35.81048 23.10994 36118 ft 410 kts 278°
2026-05-05 20:09 35.81460 23.03993 36115 ft 410 kts 278°
2026-05-05 20:09 35.81871 22.96958 36123 ft 410 kts 278°
2026-05-05 20:10 35.82280 22.89958 36127 ft 411 kts 278°
2026-05-05 20:10 35.82681 22.82957 36131 ft 411 kts 278°
2026-05-05 20:11 35.83078 22.75929 36118 ft 411 kts 277°
2026-05-05 20:11 35.83473 22.68877 36130 ft 411 kts 277°
2026-05-05 20:12 35.83859 22.61857 36134 ft 411 kts 277°
2026-05-05 20:12 35.84246 22.54851 36135 ft 411 kts 277°
2026-05-05 20:13 35.84635 22.47808 36129 ft 411 kts 277°
2026-05-05 20:13 35.85016 22.40796 36137 ft 410 kts 277°
2026-05-05 20:14 35.85394 22.33802 36143 ft 410 kts 277°
2026-05-05 20:14 35.85766 22.26787 36139 ft 410 kts 277°
2026-05-05 20:15 35.86129 22.19741 36139 ft 410 kts 277°
2026-05-05 20:15 35.86483 22.12770 36129 ft 410 kts 277°
2026-05-05 20:16 35.86841 22.05734 36129 ft 411 kts 276°
2026-05-05 20:16 35.87197 21.98705 36119 ft 412 kts 276°
2026-05-05 20:17 35.87553 21.91630 36126 ft 412 kts 276°
2026-05-05 20:17 35.87904 21.84587 36124 ft 413 kts 276°
2026-05-05 20:18 35.88248 21.77518 36128 ft 413 kts 276°
2026-05-05 20:18 35.88583 21.70462 36138 ft 414 kts 276°
2026-05-05 20:19 35.88922 21.63346 36146 ft 414 kts 276°
2026-05-05 20:19 35.89260 21.56272 36154 ft 414 kts 276°
2026-05-05 20:20 35.89593 21.49208 36157 ft 414 kts 276°
2026-05-05 20:20 35.89915 21.42104 36158 ft 413 kts 276°
2026-05-05 20:21 35.90227 21.35044 36154 ft 414 kts 276°
2026-05-05 20:21 35.90538 21.27968 36158 ft 414 kts 276°
2026-05-05 20:22 35.90844 21.20876 36162 ft 414 kts 276°
2026-05-05 20:22 35.91152 21.13768 36159 ft 414 kts 276°
2026-05-05 20:23 35.91455 21.06715 36162 ft 413 kts 276°
2026-05-05 20:23 35.91761 20.99609 36164 ft 413 kts 276°
2026-05-05 20:24 35.92055 20.92529 36163 ft 414 kts 276°
2026-05-05 20:24 35.92345 20.85450 36164 ft 413 kts 276°
2026-05-05 20:25 35.92631 20.78369 36153 ft 413 kts 276°
2026-05-05 20:25 35.92906 20.71315 36155 ft 413 kts 276°
2026-05-05 20:26 35.93182 20.64255 36155 ft 413 kts 276°
2026-05-05 20:26 35.93451 20.57178 36155 ft 413 kts 276°
2026-05-05 20:27 35.93724 20.50069 36157 ft 413 kts 276°
2026-05-05 20:27 35.93994 20.43002 36147 ft 414 kts 276°
2026-05-05 20:28 35.94253 20.35928 36127 ft 414 kts 275°
2026-05-05 20:28 35.94511 20.28850 36132 ft 414 kts 276°
2026-05-05 20:29 35.94689 20.22922 36140 ft 416 kts 271°
2026-05-05 20:29 35.94237 20.15797 36139 ft 418 kts 269°
2026-05-05 20:30 35.93659 20.07453 36144 ft 419 kts 268°
2026-05-05 20:30 35.93232 20.01477 36154 ft 419 kts 268°
2026-05-05 20:31 35.93246 19.94358 36159 ft 415 kts 275°
2026-05-05 20:31 35.93436 19.87205 36157 ft 415 kts 275°
2026-05-05 20:32 35.93614 19.80132 36161 ft 415 kts 275°
2026-05-05 20:32 35.93782 19.72983 36157 ft 416 kts 274°
2026-05-05 20:33 35.93944 19.65875 36162 ft 415 kts 274°
2026-05-05 20:33 35.94105 19.58756 36161 ft 415 kts 274°
2026-05-05 20:34 35.94264 19.51615 36160 ft 415 kts 274°
2026-05-05 20:34 35.94419 19.44543 36155 ft 415 kts 274°
2026-05-05 20:35 35.94571 19.37404 36151 ft 415 kts 274°
2026-05-05 20:35 35.94715 19.30290 36151 ft 415 kts 274°
2026-05-05 20:36 35.94857 19.23183 36152 ft 415 kts 274°
2026-05-05 20:36 35.94989 19.16028 36155 ft 416 kts 274°
2026-05-05 20:37 35.95120 19.08905 36146 ft 416 kts 274°
2026-05-05 20:37 35.95250 19.01775 36146 ft 416 kts 274°
2026-05-05 20:38 35.95377 18.94644 36148 ft 417 kts 274°
2026-05-05 20:38 35.95501 18.87501 36142 ft 417 kts 274°
2026-05-05 20:39 35.95615 18.80311 36148 ft 417 kts 273°
2026-05-05 20:39 35.95728 18.73186 36148 ft 417 kts 273°
2026-05-05 20:40 35.95836 18.66032 36150 ft 418 kts 273°
2026-05-05 20:40 35.95937 18.58836 36154 ft 418 kts 273°
2026-05-05 20:41 35.96038 18.51685 36159 ft 418 kts 273°
2026-05-05 20:41 35.96131 18.44529 36161 ft 418 kts 273°
2026-05-05 20:42 35.96225 18.37328 36155 ft 418 kts 272°
2026-05-05 20:42 35.96307 18.30172 36157 ft 418 kts 272°
2026-05-05 20:43 35.96386 18.23031 36155 ft 418 kts 272°
2026-05-05 20:43 35.96468 18.15863 36155 ft 417 kts 272°
2026-05-05 20:44 35.96541 18.08719 36155 ft 417 kts 272°
2026-05-05 20:44 35.96610 18.01537 36151 ft 417 kts 272°
2026-05-05 20:45 35.96709 17.90810 36149 ft 417 kts 272°
2026-05-05 20:45 35.96764 17.83665 36144 ft 417 kts 272°
2026-05-05 20:46 35.96822 17.76470 36146 ft 417 kts 272°
2026-05-05 20:46 35.96877 17.69324 36143 ft 417 kts 272°
2026-05-05 20:47 35.96915 17.62168 36141 ft 417 kts 272°
2026-05-05 20:47 35.96953 17.55042 36141 ft 417 kts 272°
2026-05-05 20:48 35.96993 17.47855 36138 ft 417 kts 272°
2026-05-05 20:48 35.97028 17.40718 36135 ft 417 kts 272°
2026-05-05 20:49 35.97051 17.33562 36122 ft 417 kts 271°
2026-05-05 20:49 35.97074 17.26491 36123 ft 417 kts 271°
2026-05-05 20:50 35.97102 17.19303 36119 ft 417 kts 271°
2026-05-05 20:50 35.97124 17.12167 36121 ft 417 kts 271°
2026-05-05 20:51 35.97135 17.05020 36124 ft 417 kts 271°
2026-05-05 20:51 35.97133 16.97867 36122 ft 418 kts 271°
2026-05-05 20:52 35.97135 16.90671 36125 ft 418 kts 271°
2026-05-05 20:52 35.97138 16.83502 36129 ft 419 kts 271°
2026-05-05 20:53 35.97133 16.76302 36126 ft 419 kts 271°
2026-05-05 20:53 35.97119 16.69143 36129 ft 419 kts 271°
2026-05-05 20:54 35.97107 16.61930 36126 ft 419 kts 270°
2026-05-05 20:54 35.97089 16.54754 36126 ft 419 kts 270°
2026-05-05 20:55 35.97067 16.47560 36125 ft 420 kts 270°
2026-05-05 20:55 35.97042 16.40359 36126 ft 420 kts 270°
2026-05-05 20:56 35.97009 16.33131 36119 ft 420 kts 270°
2026-05-05 20:56 35.96976 16.25938 36114 ft 420 kts 270°
2026-05-05 20:57 35.96939 16.18708 36087 ft 421 kts 270°
2026-05-05 20:57 35.96917 16.15117 35837 ft 421 kts 270°
2026-05-05 20:57 35.96895 16.11477 35586 ft 422 kts 270°
2026-05-05 20:58 35.96872 16.07905 35335 ft 423 kts 270°
2026-05-05 20:58 35.96848 16.04254 35093 ft 424 kts 270°
2026-05-05 20:58 35.96821 16.00596 34848 ft 425 kts 270°
2026-05-05 20:58 35.96794 15.96936 34612 ft 427 kts 270°
2026-05-05 20:59 35.96765 15.93305 34376 ft 428 kts 269°
2026-05-05 20:59 35.96734 15.89617 34136 ft 430 kts 269°
2026-05-05 20:59 35.96702 15.85907 33866 ft 431 kts 269°
2026-05-05 20:59 35.96670 15.82198 33596 ft 432 kts 269°
2026-05-05 21:00 35.96638 15.78513 33330 ft 433 kts 269°
2026-05-05 21:00 35.96606 15.74780 32993 ft 434 kts 270°
2026-05-05 21:00 35.96575 15.71026 31986 ft 439 kts 270°
2026-05-05 21:00 35.96540 15.67231 31052 ft 442 kts 269°
2026-05-05 21:01 35.96503 15.63455 30103 ft 445 kts 270°
2026-05-05 21:01 35.96727 15.59648 28903 ft 450 kts 278°
2026-05-05 21:01 35.97206 15.55806 27763 ft 454 kts 278°
2026-05-05 21:01 35.97689 15.51925 26556 ft 458 kts 278°
2026-05-05 21:02 35.98168 15.48060 25377 ft 462 kts 278°
2026-05-05 21:02 35.98651 15.44118 24216 ft 458 kts 278°
2026-05-05 21:02 35.99123 15.40259 23004 ft 446 kts 278°
2026-05-05 21:02 35.99578 15.36534 21993 ft 430 kts 278°
2026-05-05 21:03 36.00009 15.32976 21220 ft 422 kts 278°
2026-05-05 21:03 36.00441 15.29388 20401 ft 422 kts 278°
2026-05-05 21:03 36.00872 15.25794 19594 ft 421 kts 278°
2026-05-05 21:03 36.01297 15.22258 18820 ft 420 kts 278°
2026-05-05 21:04 36.01730 15.18675 17988 ft 420 kts 278°
2026-05-05 21:04 36.02162 15.15094 17212 ft 417 kts 278°
2026-05-05 21:04 36.02581 15.11608 16488 ft 414 kts 278°
2026-05-05 21:04 36.03002 15.08083 15780 ft 410 kts 278°
2026-05-05 21:05 36.03412 15.04635 15092 ft 407 kts 277°
2026-05-05 21:05 36.03823 15.01179 14417 ft 404 kts 277°
2026-05-05 21:05 36.04229 14.97750 13755 ft 400 kts 277°
2026-05-05 21:05 36.04628 14.94396 13095 ft 395 kts 277°
2026-05-05 21:06 36.05025 14.91050 12470 ft 390 kts 277°
2026-05-05 21:06 36.05415 14.87744 11847 ft 385 kts 277°
2026-05-05 21:06 36.05801 14.84477 11414 ft 376 kts 277°
2026-05-05 21:06 36.06165 14.81390 11289 ft 358 kts 277°
2026-05-05 21:07 36.06515 14.78406 11167 ft 342 kts 277°
2026-05-05 21:07 36.06843 14.75576 11046 ft 328 kts 277°
2026-05-05 21:07 36.07162 14.72826 10930 ft 315 kts 277°
2026-05-05 21:07 36.07468 14.70188 10806 ft 304 kts 276°
2026-05-05 21:08 36.07762 14.67649 10666 ft 294 kts 277°
2026-05-05 21:08 36.08046 14.65169 10496 ft 286 kts 276°
2026-05-05 21:08 36.08321 14.62765 10413 ft 285 kts 277°
2026-05-05 21:08 36.08601 14.60320 10296 ft 286 kts 276°
2026-05-05 21:09 36.08876 14.57924 10173 ft 284 kts 276°
2026-05-05 21:09 36.09155 14.55500 10001 ft 283 kts 276°
2026-05-05 21:09 36.09434 14.53055 9438 ft 288 kts 277°
2026-05-05 21:09 36.09717 14.50584 8950 ft 290 kts 277°
2026-05-05 21:10 36.09996 14.48165 8642 ft 285 kts 277°
2026-05-05 21:10 36.10278 14.45727 8307 ft 281 kts 277°
2026-05-05 21:10 36.10543 14.43402 8086 ft 267 kts 275°
2026-05-05 21:10 36.10504 14.41147 7611 ft 259 kts 256°
2026-05-05 21:11 36.09952 14.39148 7474 ft 238 kts 241°
2026-05-05 21:11 36.09049 14.37509 7313 ft 223 kts 226°
2026-05-05 21:11 36.07964 14.36169 7000 ft 217 kts 224°
2026-05-05 21:11 36.06909 14.34884 6768 ft 209 kts 223°
2026-05-05 21:12 36.05921 14.33684 6576 ft 196 kts 223°
2026-05-05 21:12 36.04940 14.32494 6097 ft 198 kts 223°
2026-05-05 21:12 36.03958 14.31301 5579 ft 201 kts 222°
2026-05-05 21:12 36.02952 14.30083 5085 ft 201 kts 221°
2026-05-05 21:13 36.01758 14.29314 4769 ft 192 kts 186°
2026-05-05 21:13 36.00465 14.29591 4509 ft 191 kts 150°
2026-05-05 21:13 35.99497 14.30696 4118 ft 193 kts 133°
2026-05-05 21:13 35.98548 14.31865 3807 ft 191 kts 135°
2026-05-05 21:14 35.97622 14.32997 3546 ft 184 kts 135°
2026-05-05 21:14 35.96726 14.34106 3308 ft 182 kts 134°
2026-05-05 21:14 35.95860 14.35182 3078 ft 172 kts 134°
2026-05-05 21:14 35.95036 14.36208 2844 ft 164 kts 134°
2026-05-05 21:15 35.94243 14.37195 2647 ft 159 kts 134°
2026-05-05 21:15 35.93486 14.38136 2430 ft 155 kts 134°
2026-05-05 21:15 35.92723 14.39086 2228 ft 154 kts 134°
2026-05-05 21:15 35.91972 14.40019 2027 ft 156 kts 134°
2026-05-05 21:16 35.91210 14.40967 1823 ft 155 kts 134°
2026-05-05 21:16 35.90459 14.41900 1616 ft 149 kts 134°
2026-05-05 21:16 35.89743 14.42789 1419 ft 143 kts 134°
2026-05-05 21:16 35.89052 14.43648 1237 ft 142 kts 134°
2026-05-05 21:17 35.88357 14.44510 1043 ft 140 kts 134°
2026-05-05 21:17 35.87667 14.45367 851 ft 140 kts 133°
2026-05-05 21:17 35.86993 14.46205 674 ft 139 kts 133°
2026-05-05 21:17 35.86306 14.47061 489 ft 140 kts 135°
2026-05-05 21:18 35.85614 14.47921 308 ft 140 kts 135°
2026-05-05 21:18 35.84965 14.48725 251 ft 119 kts 135°
2026-05-05 21:18 35.84631 14.49138 250 ft 86 kts 135°
2026-05-05 21:18 35.84273 14.49580 251 ft 34 kts 134°
2026-05-05 21:19 35.84215 14.49653 251 ft 11 kts 133°
2026-05-05 21:19 35.84238 14.49698 251 ft 7 kts
2026-05-05 21:19 35.84295 14.49684 251 ft 11 kts 345°
2026-05-05 21:19 35.84380 14.49654 251 ft 12 kts 344°
2026-05-05 21:20 35.84427 14.49637 251 ft 6 kts 344°
2026-05-05 21:20 35.84461 14.49622 251 ft 5 kts 339°
2026-05-05 21:20 35.84486 14.49605 251 ft 4 kts 325°
2026-05-05 21:20 35.84504 14.49588 251 ft 3 kts 322°
2026-05-05 21:21 35.84517 14.49576 251 ft 2 kts 322°
2026-05-05 21:21 35.84526 14.49566 251 ft 2 kts 317°
2026-05-05 21:21 35.84530 14.49561 251 ft 0 kts 317°
2026-05-05 21:22 35.84531 14.49560 251 ft 1 kts 317°
2026-05-05 21:22 35.84567 14.49537 251 ft 10 kts 354°
2026-05-05 21:22 35.84607 14.49561 251 ft 9 kts 39°
2026-05-05 21:23 35.84679 14.49571 251 ft 14 kts 334°
2026-05-05 21:23 35.84750 14.49500 251 ft 13 kts 314°
2026-05-05 21:23 35.84816 14.49459 250 ft 9 kts 356°
2026-05-05 21:23 35.84852 14.49458 250 ft 4 kts 359°
2026-05-05 21:24 35.84860 14.49458 250 ft 0 kts 359°